Location: Ashtead
(51.3000°N, 0.3000°W)
Time: 03:33:17
(UTC+00:00)

IRS-1D - Pass Details

Date: 26 September 2023
Orbit: 738 x 815 km, 98.7° (Epoch: 29 November)

Event Time Altitude Azimuth Distance (km) Brightness Sun altitude
Rises 03:12:34 0° 17° (NNE) 3,357 7.6 -24.7°
Reaches altitude 10° 03:14:58 10° 21° (NNE) 2,419 6.8 -24.4°
Maximum altitude 03:20:17 60° 102° (ESE) 924 4.0 -23.6°
Enters shadow 03:23:13 26° 174° (S) 1,540 4.8 -23.2°
